Regional Weather Roundup
Issued by NWS Charleston, SC

Current Version | Previous Version | Graphics & Text | Print | Product List | Glossary On
Versions: 1 2 3 4 5 6 7 8 9 10 11 12 13 14 15 16 17 18 19 20 21 22 23 24 25 26 27 28 29 30 31 32 33 34 35 36 37 38 39 40 41 42 43 44 45 46 47 48 49 50
000
ASUS42 KCHS 200125
RWRCHS

REGIONAL WEATHER ROUNDUP
NATIONAL WEATHER SERVICE CHARLESTON SC
900 PM EDT TUE AUG 19 2014

NOTE: "FAIR" INDICATES FEW OR NO CLOUDS BELOW 12,000 FEET WITH NO
SIGNIFICANT WEATHER AND/OR OBSTRUCTIONS TO VISIBILITY.

NOT ALL STATIONS ARE QUALITY CONTROLLED BY THE NATIONAL
WEATHER SERVICE. USE DATA WITH CAUTION...ESPECIALLY
DEWPOINT OBSERVATIONS.

SCZ027-030-031-034>040-042>050-200200-
...SOUTH CAROLINA...

CITY           SKY/WX    TMP DP  RH WIND       PRES   REMARKS
N CHARLESTON   PTCLDY    81  74  79 SW7       29.87R
WATERFRONT PRK   N/A     82 N/A N/A SW5         N/A
FORT JOHNSON   NOT AVBL
MOUNT PLEASANT FAIR      82  73  74 W7        29.87S
JOHNS ISLAND   CLEAR     79  75  89 CALM      29.88R
PINOPOLIS        N/A     84  75  74 SW8       29.78R HX  92
MONCKS CORNER  NOT AVBL
SUMMERVILLE    FAIR      79  75  89 CALM      29.87S
BEAUFORT MCAS  MOCLDY    81  74  79 W5        29.88S
BEAUFORT ARPT  FAIR      81  75  83 SW5       29.88S
HILTON HEAD IS MOCLDY    81  75  83 S5        29.90S
GEORGETOWN     NOT AVBL
WALTERBORO     MOCLDY    81  79  94 SW5       29.88S
ORANGEBURG     CLOUDY    81  71  71 SW8       29.86S
BARNWELL       MOCLDY    79  72  78 SW7       29.87S
AIKEN          FAIR      79  73  83 SW5       29.91R
MANNING        FAIR      79  79 100 CALM      29.87R
KINGSTREE      NOT AVBL
COLUMBIA       MOCLDY    82  70  66 N7        29.85R
SUMTER         MOCLDY    78  73  85 E3        29.84S
FLORENCE       PTCLDY    80  74  81 CALM      29.86R
MYRTLE BEACH   MOCLDY    81  73  78 VRB6      29.86
N MYRTLE BEACH PTCLDY    76  75  97 CALM      29.86R

$$

GAZ063-065-086>088-099>101-113>116-118-119-134-136>141-150-200200-
...GEORGIA...

CITY           SKY/WX    TMP DP  RH WIND       PRES   REMARKS
SAVANNAH ARPT  CLOUDY    80  73  79 SW8       29.90R
HUNTER AAF     CLOUDY    80  74  84 SW8       29.89R
FORT STEWART   CLOUDY    78  70  74 SW12      29.91R
STATESBORO     NOT AVBL
SYLVANIA       CLOUDY    77  76  96 CALM      29.90R
CLAXTON        FAIR      79  73  83 SW5       29.91R
THOMSON        PTCLDY    79  76  91 CALM      29.93R
AUGUSTA-BUSH   MOCLDY    77  69  76 SW6       29.85F
AUGUSTA-DANIEL MOCLDY    80  70  71 CALM      29.87F
SWAINSBORO     FAIR      77  77 100 W3        29.91R
VIDALIA          N/A     77  72  83 SW9       29.92R
ALMA           CLOUDY    72  70  93 S3        29.93R
WAYCROSS       CLOUDY    79  72  78 SW6       29.95R
JESUP            N/A     79  72  78 W5        29.93R
BRUNSWICK      CLOUDY    79  70  73 SW8       29.93S
SAINT SIMONS   MOCLDY    78  69  73 SW8       29.92S

$$

SCZ027-028-034-036>038-045-046-048>050-GAZ119-141-200200-
...LAKE AND SUPPLEMENTAL COASTAL OBSERVATIONS...

STATION/POSITION TIME  TEMP    WIND        PRES    WAVE   SWELL
                       AIR SEA DIR/SP/G            HT/PER HT/PER/DIR
                 (UTC) (F)     (DEG/KT/KT) (MB)    (FT/S) (FT/S/D)
UPR LAKE MARION  NOT AVBL
WINYAH BAY       0100   81     270/  3     1011.0S
LAKE MURRAY      0000   80      30/  2/  4 1010.5S
ACE BASIN NERRS  0100   80     250/  1     1012.0S
FORT PULASKI     0100   81     230/  5/  8 1012.7R
SAPELO ISLAND    0100   80     240/  8     1013.0S

$$

ANZ835-935-AMZ111-154-330-350-352-354-374-450-454-472-200200-
...C-MAN AND BUOY OBSERVATIONS...

STATION/POSITION TIME  TEMP    WIND        PRES    WAVE   SWELL
                       AIR SEA DIR/SP/G            HT/PER HT/PER/DIR
                 (UTC) (F)     (DEG/KT/KT) (MB)    (FT/S) (FT/S/D)
FOLLY BEACH CMAN 0100   80     250/  5/  8 1012.2R
BUOY 41004       0100   84 83  240/ 17/ 21 1010.9R   5/ 6   2/15
BUOY 41008       0100   83 85  250/ 19/ 23 1012.7S   2/ 3
5E ST. MARYS GA  0100      81                N/A     2/ 2
FRYING PAN BUOY  NOT AVBL
BUOY 41025       0100   80     230/ 10/ 12 1010.1R   3/ 6   2/210/ 6
CAPE LOOKOUT NC  0100   82     240/ 10/ 14 1010.8R
BUOY 41002       0046   82 81  240/ 17/ 19 1013.8R   5/ 8   3/260/ 8
BUOY 41010       0100   85 86  190/  8/ 10 1015.8S   3/ 5   2/310/ 5
BUOY 41012       NOT AVBL
ST AUGUSTINE FL  0100   80     180/  5/  6 1015.0R
CAPERS NEARSHORE 0000   83     260/ 14/ 17   N/A
FRIPP NEARSHORE  NOT AVBL


$$


USA.gov is the U.S. government's official web portal to all federal, state and local government web resources and services.